| time (UTC) | temp C | wind direction | speed KPH | gust KPH | rain 1hr cm | rain 24hr cm | rain mn cm | humidity % | barometer mb |
| 20260502130151 | 17 | 17 | 1.6 | 17.7 | 0.00 | 0.00 | 0.00 | 47 | 1025.6 |
| 20260502123211 | 16 | 254 | 9.7 | 16.1 | 0.00 | 0.00 | 0.00 | 46 | 1025.9 |
| 20260502120156 | 16 | 349 | 4.8 | 12.9 | 0.00 | 0.00 | 0.00 | 46 | 1026.1 |
| 20260502113150 | 16 | 257 | 6.4 | 16.1 | 0.00 | 0.00 | 0.00 | 46 | 1026.5 |
| 20260502110222 | 16 | 227 | 4.8 | 11.3 | 0.00 | 0.00 | 0.00 | 47 | 1027.0 |
| 20260502104645 | 15 | 192 | 1.6 | 11.3 | 0.00 | 0.00 | 0.00 | 51 | 1027.1 |
| 20260502101719 | 15 | 232 | 4.8 | 14.5 | 0.00 | 0.00 | 0.00 | 50 | 1027.5 |
| 20260502100153 | 15 | 254 | 4.8 | 12.9 | 0.00 | 0.00 | 0.00 | 48 | 1027.5 |
| 20260502090201 | 14 | 183 | 3.2 | 12.9 | 0.00 | 0.00 | 0.00 | 47 | 1027.9 |
| 20260502070215 | 10 | 202 | 0.0 | 0.0 | 0.00 | 0.00 | 0.00 | 70 | 1028.4 |
| 20260502064705 | 7 | 202 | 0.0 | 0.0 | 0.00 | 0.00 | 0.00 | 76 | 1028.6 |
| 20260502063019 | 3 | 202 | 0.0 | 0.0 | 0.00 | 0.00 | 0.00 | 95 | 1028.9 |
| 20260502053212 | -1 | 202 | 0.0 | 0.0 | 0.00 | 0.00 | 0.00 | 94 | 1029.2 |
| 20260502051648 | -2 | 202 | 0.0 | 0.0 | 0.00 | 0.00 | 0.00 | 94 | 1029.4 |
| 20260502044705 | -2 | 202 | 0.0 | 0.0 | 0.00 | 0.00 | 0.00 | 93 | 1029.3 |
| 20260502043152 | -2 | 202 | 0.0 | 0.0 | 0.00 | 0.00 | 0.00 | 93 | 1029.2 |
| 20260502040216 | -2 | 209 | 0.0 | 0.0 | 0.00 | 0.00 | 0.00 | 92 | 1029.1 |
| 20260502033218 | -2 | 209 | 0.0 | 0.0 | 0.00 | 0.00 | 0.00 | 92 | 1029.2 |
| 20260502030206 | -2 | 209 | 0.0 | 0.0 | 0.00 | 0.00 | 0.00 | 92 | 1029.2 |
| 20260502024650 | -2 | 209 | 0.0 | 0.0 | 0.00 | 0.00 | 0.00 | 92 | 1029.2 |
| 20260502023147 | -2 | 209 | 0.0 | 0.0 | 0.00 | 0.00 | 0.00 | 91 | 1029.2 |
| 20260502020206 | -2 | 209 | 0.0 | 0.0 | 0.00 | 0.00 | 0.00 | 92 | 1029.3 |
| 20260502014701 | -2 | 209 | 0.0 | 0.0 | 0.00 | 0.00 | 0.00 | 91 | 1029.3 |
| 20260502013144 | -1 | 209 | 0.0 | 0.0 | 0.00 | 0.00 | 0.00 | 91 | 1029.4 |
| 20260502010204 | -1 | 209 | 0.0 | 0.0 | 0.00 | 0.00 | 0.00 | 90 | 1029.1 |
| 20260502003206 | -1 | 209 | 0.0 | 0.0 | 0.00 | 0.00 | 0.00 | 90 | 1029.1 |
| 20260502001644 | 0 | 209 | 0.0 | 0.0 | 0.00 | 0.00 | 0.00 | 90 | 1029.2 |
| 20260501234715 | 0 | 209 | 0.0 | 0.0 | 0.00 | 0.00 | 0.00 | 90 | 1029.3 |
| 20260501231716 | 0 | 209 | 0.0 | 0.0 | 0.00 | 0.00 | 0.00 | 89 | 1029.3 |
| 20260501230202 | 0 | 209 | 0.0 | 0.0 | 0.00 | 0.00 | 0.00 | 90 | 1029.3 |
| 20260501223204 | 0 | 209 | 0.0 | 0.0 | 0.00 | 0.00 | 0.00 | 88 | 1029.2 |
| 20260501220248 | 0 | 209 | 0.0 | 0.0 | 0.00 | 0.00 | 0.00 | 87 | 1028.9 |
| 20260501213213 | 0 | 209 | 0.0 | 3.2 | 0.00 | 0.00 | 0.00 | 89 | 1028.5 |
| 20260501210217 | 0 | 209 | 0.0 | 3.2 | 0.00 | 0.00 | 0.00 | 86 | 1028.3 |
| 20260501204650 | 1 | 209 | 0.0 | 3.2 | 0.00 | 0.00 | 0.00 | 85 | 1028.2 |
| 20260501201659 | 2 | 209 | 0.0 | 0.0 | 0.00 | 0.00 | 0.00 | 83 | 1028.0 |
| 20260501200144 | 2 | 209 | 0.0 | 3.2 | 0.00 | 0.00 | 0.00 | 82 | 1028.0 |
| 20260501193150 | 3 | 209 | 0.0 | 3.2 | 0.00 | 0.00 | 0.00 | 79 | 1027.7 |
| 20260501190147 | 5 | 209 | 0.0 | 3.2 | 0.00 | 0.00 | 0.00 | 73 | 1027.6 |
| 20260501183216 | 6 | 209 | 1.6 | 3.2 | 0.00 | 0.00 | 0.00 | 68 | 1027.2 |
| 20260501181654 | 7 | 209 | 1.6 | 4.8 | 0.00 | 0.00 | 0.00 | 70 | 1027.0 |
| 20260501180147 | 7 | 209 | 0.0 | 4.8 | 0.00 | 0.00 | 0.00 | 66 | 1026.9 |
| 20260501173222 | 10 | 234 | 1.6 | 6.4 | 0.00 | 0.00 | 0.00 | 50 | 1026.8 |
| 20260501170153 | 11 | 237 | 1.6 | 6.4 | 0.00 | 0.00 | 0.00 | 48 | 1026.8 |
| 20260501163219 | 13 | 239 | 3.2 | 8.0 | 0.00 | 0.00 | 0.00 | 41 | 1026.6 |
| 20260501161648 | 13 | 213 | 0.0 | 11.3 | 0.00 | 0.00 | 0.00 | 42 | 1026.8 |
| 20260501154658 | 13 | 246 | 6.4 | 19.3 | 0.00 | 0.00 | 0.00 | 39 | 1026.9 |
| 20260501151717 | 13 | 265 | 4.8 | 16.1 | 0.00 | 0.00 | 0.00 | 42 | 1027.3 |
| 20260501150216 | 13 | 348 | 6.4 | 16.1 | 0.00 | 0.00 | 0.00 | 37 | 1027.3 |
| 20260501143153 | 13 | 195 | 4.8 | 11.3 | 0.00 | 0.00 | 0.00 | 39 | 1027.3 |